When you browse on this site, cookies collect data to enhance your experience and personalize the content and advertising you see.
Visit our Privacy Policy to learn more. By continuing to use the site, you agree to this use of cookies and data.
EN

Hourly Weather Fagaras

Today, 8 August, Saturday

Time Temperature Precipitation Wind Pressure Humidity
00:00 +21°C° 0.1 mm 2 mps 725 mmHg 72%
01:00 +21°C° 0.1 mm 1 mps 725 mmHg 74%
02:00 +22°C° 0 mm 1 mps 725 mmHg 78%
03:00 +21°C° 0.5 mm 1 mps 725 mmHg 79%
04:00 +21°C° 0.5 mm 1 mps 725 mmHg 81%
05:00 +20°C° 0.5 mm 1 mps 725 mmHg 82%
06:00 +21°C° 0 mm 1 mps 725 mmHg 80%
07:00 +22°C° 0 mm 1 mps 725 mmHg 77%
08:00 +24°C° 0 mm 1 mps 726 mmHg 70%
09:00 +26°C° 0 mm 1 mps 726 mmHg 63%
10:00 +28°C° 0 mm 1 mps 726 mmHg 56%
11:00 +29°C° 0 mm 1 mps 726 mmHg 49%
12:00 +30°C° 0.1 mm 1 mps 725 mmHg 49%
13:00 +30°C° 0.1 mm 1 mps 725 mmHg 48%
14:00 +31°C° 0 mm 1 mps 725 mmHg 46%
15:00 +30°C° 0.3 mm 1 mps 725 mmHg 48%
16:00 +30°C° 0.3 mm 2 mps 724 mmHg 49%
17:00 +30°C° 0.3 mm 2 mps 724 mmHg 51%
18:00 +28°C° 0.2 mm 2 mps 724 mmHg 57%
19:00 +26°C° 0.2 mm 2 mps 724 mmHg 63%
20:00 +23°C° 0.2 mm 2 mps 724 mmHg 69%
21:00 +23°C° 0.1 mm 2 mps 724 mmHg 73%
22:00 +21°C° 0.1 mm 2 mps 724 mmHg 76%
23:00 +20°C° 0.1 mm 2 mps 724 mmHg 80%

Tomorrow, 9 August, Sunday

Time Temperature Precipitation Wind Pressure Humidity
00:00 +19°C° 0 mm 2 mps 724 mmHg 82%
01:00 +19°C° 0 mm 2 mps 724 mmHg 83%
02:00 +19°C° 0 mm 1 mps 724 mmHg 85%
03:00 +19°C° 0 mm 1 mps 724 mmHg 86%
04:00 +19°C° 0 mm 1 mps 724 mmHg 87%
05:00 +18°C° 0 mm 1 mps 724 mmHg 88%
06:00 +20°C° 0 mm 1 mps 724 mmHg 83%
07:00 +21°C° 0 mm 2 mps 724 mmHg 77%
08:00 +24°C° 0 mm 2 mps 725 mmHg 71%
09:00 +25°C° 0 mm 2 mps 725 mmHg 66%
10:00 +26°C° 0 mm 3 mps 725 mmHg 60%
11:00 +27°C° 0 mm 3 mps 725 mmHg 55%
12:00 +28°C° 0.1 mm 3 mps 724 mmHg 53%
13:00 +28°C° 0.1 mm 3 mps 724 mmHg 52%
14:00 +29°C° 0.1 mm 3 mps 724 mmHg 50%
15:00 +29°C° 0.1 mm 3 mps 723 mmHg 51%
16:00 +28°C° 0.1 mm 2 mps 723 mmHg 52%
17:00 +28°C° 0.1 mm 2 mps 723 mmHg 53%
18:00 +26°C° 0 mm 2 mps 723 mmHg 59%
19:00 +24°C° 0 mm 2 mps 723 mmHg 65%
20:00 +22°C° 0 mm 1 mps 723 mmHg 71%
21:00 +22°C° 0 mm 1 mps 723 mmHg 73%
22:00 +21°C° 0 mm 1 mps 723 mmHg 76%
23:00 +20°C° 0 mm 1 mps 723 mmHg 79%

Day after tomorrow, 10 August, Monday

Time Temperature Precipitation Wind Pressure Humidity
00:00 +20°C° 0 mm 1 mps 723 mmHg 80%
01:00 +19°C° 0 mm 1 mps 723 mmHg 81%
02:00 +19°C° 0 mm 1 mps 723 mmHg 83%
03:00 +19°C° 0.1 mm 1 mps 723 mmHg 84%
04:00 +18°C° 0.1 mm 1 mps 723 mmHg 85%
05:00 +18°C° 0.1 mm 1 mps 723 mmHg 86%
06:00 +20°C° 0 mm 1 mps 723 mmHg 80%
07:00 +21°C° 0 mm 1 mps 723 mmHg 75%
08:00 +23°C° 0 mm 1 mps 723 mmHg 70%
09:00 +25°C° 0.2 mm 2 mps 724 mmHg 64%
10:00 +26°C° 0.2 mm 2 mps 724 mmHg 58%
11:00 +28°C° 0.2 mm 2 mps 724 mmHg 52%
12:00 +28°C° 0.3 mm 2 mps 724 mmHg 50%
13:00 +29°C° 0.3 mm 1 mps 723 mmHg 48%
14:00 +30°C° 0.3 mm 1 mps 723 mmHg 46%
15:00 +30°C° 0.3 mm 1 mps 723 mmHg 48%
16:00 +29°C° 0.3 mm 1 mps 723 mmHg 49%
17:00 +29°C° 0.3 mm 1 mps 723 mmHg 50%
18:00 +26°C° 1.5 mm 1 mps 722 mmHg 63%
19:00 +24°C° 1.5 mm 1 mps 722 mmHg 75%
20:00 +20°C° 1.5 mm 2 mps 722 mmHg 87%
21:00 +19°C° 0.6 mm 2 mps 722 mmHg 87%
22:00 +20°C° 0.6 mm 1 mps 723 mmHg 87%
23:00 +20°C° 0.6 mm 1 mps 723 mmHg 87%

11 August, Tuesday

Time Temperature Precipitation Wind Pressure Humidity
00:00 +19°C° 0.2 mm 1 mps 723 mmHg 87%
01:00 +19°C° 0.2 mm 1 mps 723 mmHg 88%
02:00 +19°C° 0.2 mm 1 mps 723 mmHg 88%
03:00 +18°C° 0.3 mm 1 mps 723 mmHg 88%
04:00 +18°C° 0.3 mm 1 mps 723 mmHg 89%
05:00 +16°C° 0.3 mm 0 mps 722 mmHg 90%
06:00 +19°C° 0.1 mm 1 mps 723 mmHg 87%
07:00 +21°C° 0.1 mm 1 mps 723 mmHg 85%
08:00 +22°C° 0.1 mm 1 mps 723 mmHg 82%
09:00 +24°C° 0.3 mm 1 mps 723 mmHg 76%
10:00 +26°C° 0.3 mm 1 mps 723 mmHg 70%
11:00 +27°C° 0.3 mm 1 mps 724 mmHg 63%
12:00 +28°C° 0.8 mm 1 mps 723 mmHg 61%
13:00 +28°C° 0.8 mm 2 mps 723 mmHg 59%
14:00 +29°C° 0.8 mm 2 mps 723 mmHg 57%
15:00 +28°C° 1 mm 2 mps 723 mmHg 60%
16:00 +28°C° 1 mm 2 mps 723 mmHg 64%
17:00 +27°C° 1 mm 1 mps 723 mmHg 67%
18:00 +25°C° 0.8 mm 1 mps 722 mmHg 72%
19:00 +24°C° 0.8 mm 1 mps 722 mmHg 76%
20:00 +22°C° 0.8 mm 1 mps 722 mmHg 81%
21:00 +21°C° 0.2 mm 1 mps 722 mmHg 82%
22:00 +21°C° 0.2 mm 1 mps 722 mmHg 84%
23:00 +20°C° 0.2 mm 1 mps 722 mmHg 85%

12 August, Wednesday

Time Temperature Precipitation Wind Pressure Humidity
00:00 +20°C° 0.3 mm 1 mps 722 mmHg 86%
01:00 +19°C° 0.3 mm 1 mps 722 mmHg 87%
02:00 +19°C° 0.3 mm 1 mps 722 mmHg 88%
03:00 +16°C° 0.1 mm 0 mps 722 mmHg 88%
04:00 +16°C° 0.1 mm 0 mps 722 mmHg 88%
05:00 +16°C° 0.1 mm 0 mps 722 mmHg 89%
06:00 +17°C° 0 mm 0 mps 722 mmHg 86%
07:00 +19°C° 0 mm 0 mps 723 mmHg 83%
08:00 +22°C° 0 mm 1 mps 723 mmHg 80%
09:00 +24°C° 0.4 mm 1 mps 723 mmHg 74%
10:00 +25°C° 0.4 mm 1 mps 723 mmHg 68%
11:00 +27°C° 0.4 mm 1 mps 724 mmHg 63%
12:00 +27°C° 0.5 mm 1 mps 724 mmHg 60%
13:00 +28°C° 0.5 mm 1 mps 723 mmHg 57%
14:00 +29°C° 0.5 mm 1 mps 723 mmHg 55%
15:00 +28°C° 0.4 mm 1 mps 723 mmHg 58%
16:00 +27°C° 0.4 mm 2 mps 723 mmHg 61%
17:00 +27°C° 0.4 mm 2 mps 723 mmHg 64%
18:00 +25°C° 0.1 mm 2 mps 723 mmHg 69%
19:00 +23°C° 0.1 mm 2 mps 723 mmHg 74%
20:00 +20°C° 0.1 mm 2 mps 723 mmHg 79%
21:00 +20°C° 0 mm 2 mps 724 mmHg 79%
22:00 +19°C° 0 mm 2 mps 724 mmHg 80%
23:00 +19°C° 0 mm 2 mps 724 mmHg 80%

13 August, Thursday

Time Temperature Precipitation Wind Pressure Humidity
00:00 +18°C° 0 mm 2 mps 724 mmHg 81%
01:00 +18°C° 0 mm 2 mps 724 mmHg 82%
02:00 +18°C° 0 mm 2 mps 724 mmHg 83%
03:00 +17°C° 0 mm 2 mps 724 mmHg 84%
04:00 +17°C° 0 mm 2 mps 724 mmHg 85%
05:00 +16°C° 0 mm 2 mps 724 mmHg 85%
06:00 +18°C° 0 mm 2 mps 724 mmHg 81%
07:00 +19°C° 0 mm 2 mps 725 mmHg 77%
08:00 +21°C° 0 mm 2 mps 725 mmHg 73%
09:00 +23°C° 0.2 mm 2 mps 725 mmHg 68%
10:00 +25°C° 0.2 mm 2 mps 725 mmHg 63%
11:00 +27°C° 0.2 mm 1 mps 725 mmHg 59%
12:00 +27°C° 0.4 mm 2 mps 725 mmHg 58%
13:00 +28°C° 0.4 mm 2 mps 725 mmHg 56%
14:00 +28°C° 0.4 mm 2 mps 725 mmHg 55%
15:00 +28°C° 0.3 mm 2 mps 724 mmHg 57%
16:00 +28°C° 0.3 mm 2 mps 724 mmHg 58%
17:00 +28°C° 0.3 mm 2 mps 724 mmHg 59%
18:00 +26°C° 0.1 mm 2 mps 724 mmHg 65%
19:00 +24°C° 0.1 mm 2 mps 724 mmHg 71%
20:00 +22°C° 0.1 mm 1 mps 724 mmHg 77%
21:00 +21°C° 0.2 mm 1 mps 724 mmHg 79%
22:00 +20°C° 0.2 mm 1 mps 724 mmHg 81%
23:00 +20°C° 0.2 mm 1 mps 724 mmHg 83%
Show more